Alamogordo, NM

12:22 AM MDT on September 18, 2019 (GMT -0600)
Alamogordo-White Sands Regional

Weather History for KALM - July, 2019

Change the Weather History Date:

Monday, July 22, 2019

  Actual Average Record
Temperature  
Mean Temperature 81 °F -  
Max Temperature 91 °F 92 °F 105 °F (2003)
Min Temperature 71 °F 66 °F 59 °F (1979)
Cooling Degree Days 16    
Growing Degree Days 31 (Base 50)    
Moisture  
Dew Point 53 °F    
Average Humidity 40    
Maximum Humidity 69    
Minimum Humidity 22    
Precipitation  
Precipitation 0.10 in - - ()
Sea Level Pressure  
Sea Level Pressure 30.18 in    
Wind  
Wind Speed 8 mph (West)    
Max Wind Speed 22 mph    
Max Gust Speed 29 mph    
Visibility 10 miles    
Events Rain , Thunderstorm    
Averages and records for this station are not official NWS values.
T = Trace of Precipitation, MM = Missing Value Source: NWS Daily Summary

Daily Weather History Graph

Daily Weather History Graph

Search for Another Location

Airport or City:

Astronomy

Jul. 22, 2019 Rise Set
Actual Time 6:10 AM MDT 8:09 PM MDT
Civil Twilight 5:43 AM MDT 8:37 PM MDT
Nautical Twilight 5:09 AM MDT 9:10 PM MDT
Astronomical Twilight 4:34 AM MDT 9:46 PM MDT
Moon 11:48 PM MDT (7/22) 11:15 AM MDT (7/22)
Length of Visible Light 14h 53m
Length of Day
13h 58m
Waning Gibbous, 72% of the Moon is Illuminated
Jul 22
Waning Gibbous
Jul 24
Last Quarter
Jul 31
New
Aug 7
First Quarter
Aug 15
Full

Hourly Weather History & Observations

Time (MDT) Temp. Heat Index Dew Point Humidity Pressure Visibility Wind Dir Wind Speed Gust Speed Precip Events Conditions
12:15 AM 86.0 °F - 46.4 °F 25% 30.05 in 10.0 mi East 16.1 mph 25.3 mph N/A   Clear
12:35 AM 86.0 °F - 44.6 °F 23% 30.07 in 10.0 mi East 11.5 mph 18.4 mph N/A   Clear
12:55 AM 87.8 °F - 44.6 °F 22% 30.08 in 10.0 mi West 11.5 mph 18.4 mph N/A   Clear
1:15 AM 84.2 °F - 42.8 °F 23% 30.08 in 10.0 mi West 11.5 mph - N/A   Clear
1:35 AM 82.4 °F - 44.6 °F 26% 30.09 in 10.0 mi West 6.9 mph - N/A   Clear
1:55 AM 82.4 °F - 44.6 °F 26% 30.09 in 10.0 mi NW 5.8 mph - N/A   Clear
2:15 AM 80.6 °F - 44.6 °F 28% 30.09 in 10.0 mi NE 5.8 mph - N/A   Clear
2:35 AM 82.4 °F - 46.4 °F 28% 30.10 in 10.0 mi WNW 6.9 mph - N/A   Clear
2:55 AM 82.4 °F - 46.4 °F 28% 30.10 in 10.0 mi WNW 5.8 mph - N/A   Clear
3:15 AM 82.4 °F - 46.4 °F 28% 30.10 in 10.0 mi WNW 3.5 mph - N/A   Clear
3:35 AM 80.6 °F - 46.4 °F 30% 30.10 in 10.0 mi South 3.5 mph - N/A   Clear
3:55 AM 80.6 °F - 46.4 °F 30% 30.11 in 10.0 mi SE 3.5 mph - N/A   Clear
4:15 AM 78.8 °F - 48.2 °F 34% 30.11 in 10.0 mi SE 6.9 mph - N/A   Clear
4:35 AM 77.0 °F - 48.2 °F 36% 30.11 in 10.0 mi South 8.1 mph - N/A   Partly Cloudy
4:55 AM 80.6 °F - 46.4 °F 30% 30.13 in 10.0 mi Calm Calm - N/A   Partly Cloudy
5:15 AM 77.0 °F - 48.2 °F 36% 30.14 in 10.0 mi SSE 5.8 mph - N/A   Scattered Clouds
5:35 AM 77.0 °F - 48.2 °F 36% 30.14 in 10.0 mi SSE 11.5 mph - N/A   Partly Cloudy
5:55 AM 78.8 °F - 48.2 °F 34% 30.15 in 10.0 mi SE 10.4 mph - N/A   Clear
6:15 AM 78.8 °F - 48.2 °F 34% 30.16 in 10.0 mi SE 9.2 mph - N/A   Partly Cloudy
6:35 AM 78.8 °F - 48.2 °F 34% 30.17 in 10.0 mi WSW 4.6 mph - N/A   Partly Cloudy
6:55 AM 77.0 °F - 48.2 °F 36% 30.19 in 10.0 mi West 6.9 mph - N/A   Mostly Cloudy
7:15 AM 77.0 °F - 50.0 °F 39% 30.19 in 10.0 mi WSW 6.9 mph - N/A   Scattered Clouds
7:35 AM 75.2 °F - 50.0 °F 41% 30.19 in 10.0 mi WSW 8.1 mph - N/A   Clear
7:55 AM 75.2 °F - 51.8 °F 44% 30.20 in 10.0 mi SW 5.8 mph - N/A   Clear
8:15 AM 75.2 °F - 51.8 °F 44% 30.21 in 10.0 mi SW 5.8 mph - N/A   Clear
8:35 AM 77.0 °F - 51.8 °F 41% 30.22 in 10.0 mi SSW 9.2 mph - N/A   Clear
8:55 AM 80.6 °F 80.3 °F 53.6 °F 39% 30.22 in 10.0 mi South 5.8 mph - N/A   Clear
9:15 AM 80.6 °F 80.3 °F 53.6 °F 39% 30.23 in 10.0 mi South 5.8 mph - N/A   Clear
9:35 AM 80.6 °F 80.3 °F 53.6 °F 39% 30.23 in 10.0 mi SSW 5.8 mph - N/A   Clear
9:55 AM 82.4 °F 81.4 °F 53.6 °F 37% 30.24 in 10.0 mi SSE 3.5 mph - N/A   Clear
10:15 AM 84.2 °F - 51.8 °F 33% 30.23 in 10.0 mi Calm Calm - N/A   Clear
10:35 AM 84.2 °F - 51.8 °F 33% 30.23 in 10.0 mi SSW 3.5 mph - N/A   Clear
10:55 AM 84.2 °F - 51.8 °F 33% 30.23 in 10.0 mi West 8.1 mph - N/A   Clear
11:15 AM 84.2 °F - 51.8 °F 33% 30.23 in 10.0 mi West 9.2 mph - N/A   Clear
11:35 AM 86.0 °F - 51.8 °F 31% 30.24 in 10.0 mi West 6.9 mph - N/A   Clear
11:55 AM 87.8 °F - 50.0 °F 27% 30.23 in 10.0 mi WNW 8.1 mph - N/A   Clear
12:15 PM 89.6 °F - 48.2 °F 24% 30.23 in 10.0 mi NW 9.2 mph - N/A   Clear
12:35 PM 89.6 °F - 48.2 °F 24% 30.22 in 10.0 mi WNW 6.9 mph - N/A   Clear
12:55 PM 89.6 °F - 48.2 °F 24% 30.22 in 10.0 mi West 9.2 mph - N/A   Clear
1:15 PM 91.4 °F - 48.2 °F 23% 30.21 in 10.0 mi Calm Calm - N/A   Clear
1:35 PM 91.4 °F - 48.2 °F 23% 30.21 in 10.0 mi NW 8.1 mph - N/A   Scattered Clouds
1:55 PM 89.6 °F - 48.2 °F 24% 30.20 in 10.0 mi SSE 3.5 mph - N/A   Mostly Cloudy
2:15 PM 89.6 °F - 48.2 °F 24% 30.20 in 10.0 mi SSW 4.6 mph - N/A   Mostly Cloudy
2:35 PM 82.4 °F 82.5 °F 59.0 °F 45% 30.21 in 7.0 mi South 18.4 mph 25.3 mph 0.01 in   Overcast
2:55 PM 71.6 °F - 60.8 °F 69% 30.21 in 8.0 mi South 21.9 mph 28.8 mph 0.10 in Rain , Thunderstorm Light Rain
3:15 PM 73.4 °F - 59.0 °F 61% 30.21 in 10.0 mi SSW 16.1 mph 25.3 mph N/A   Overcast
3:35 PM 75.2 °F - 57.2 °F 53% 30.22 in 10.0 mi SW 10.4 mph 18.4 mph N/A Thunderstorm Overcast
3:55 PM 77.0 °F - 59.0 °F 54% 30.21 in 10.0 mi ESE 12.7 mph 16.1 mph N/A   Mostly Cloudy
4:15 PM 73.4 °F - 62.6 °F 69% 30.21 in 10.0 mi NNE 4.6 mph - N/A Thunderstorm Mostly Cloudy
4:35 PM 75.2 °F - 62.6 °F 65% 30.21 in 10.0 mi NNE 8.1 mph - N/A   Partly Cloudy
4:55 PM 75.2 °F - 62.6 °F 65% 30.19 in 10.0 mi NE 5.8 mph - N/A   Clear
5:15 PM 75.2 °F - 62.6 °F 65% 30.18 in 10.0 mi NE 8.1 mph - N/A   Clear
5:35 PM 77.0 °F - 60.8 °F 57% 30.17 in 10.0 mi NNE 8.1 mph - N/A   Clear
5:55 PM 78.8 °F - 59.0 °F 51% 30.17 in 10.0 mi NNE 4.6 mph - N/A   Clear
6:15 PM 80.6 °F 81.5 °F 60.8 °F 51% 30.17 in 10.0 mi NE 6.9 mph - N/A   Clear
6:35 PM 82.4 °F 82.0 °F 57.2 °F 42% 30.16 in 10.0 mi NNW 3.5 mph - N/A   Clear
6:55 PM 84.2 °F 83.5 °F 57.2 °F 40% 30.17 in 10.0 mi North 4.6 mph - N/A   Clear
7:15 PM 82.4 °F 82.0 °F 57.2 °F 42% 30.17 in 10.0 mi North 3.5 mph - N/A   Clear
7:35 PM 80.6 °F 81.1 °F 59.0 °F 48% 30.17 in 10.0 mi NNE 5.8 mph - N/A   Clear
7:55 PM 80.6 °F 81.1 °F 59.0 °F 48% 30.17 in 10.0 mi NNE 5.8 mph - N/A   Clear
8:15 PM 80.6 °F 80.8 °F 57.2 °F 45% 30.18 in 10.0 mi NE 4.6 mph - N/A   Clear
8:35 PM 80.6 °F 80.5 °F 55.4 °F 42% 30.19 in 10.0 mi North 5.8 mph - N/A   Clear
8:55 PM 80.6 °F 80.5 °F 55.4 °F 42% 30.20 in 10.0 mi ENE 4.6 mph - N/A   Clear
9:15 PM 78.8 °F - 53.6 °F 42% 30.20 in 10.0 mi ENE 9.2 mph - N/A   Clear
9:35 PM 77.0 °F - 55.4 °F 47% 30.21 in 10.0 mi East 5.8 mph - N/A   Clear
9:55 PM 77.0 °F - 55.4 °F 47% 30.22 in 10.0 mi ESE 3.5 mph - N/A   Clear
10:15 PM 75.2 °F - 57.2 °F 53% 30.23 in 10.0 mi Calm Calm - N/A   Scattered Clouds
10:35 PM 75.2 °F - 57.2 °F 53% 30.23 in 10.0 mi NNE 5.8 mph - N/A   Mostly Cloudy
10:55 PM 75.2 °F - 57.2 °F 53% 30.24 in 10.0 mi WSW 6.9 mph - N/A   Scattered Clouds
11:15 PM 75.2 °F - 57.2 °F 53% 30.25 in 10.0 mi WNW 4.6 mph - N/A   Partly Cloudy
11:35 PM 77.0 °F - 57.2 °F 50% 30.26 in 10.0 mi NNW 3.5 mph - N/A   Mostly Cloudy
11:55 PM 77.0 °F - 55.4 °F 47% 30.26 in 10.0 mi NNW 3.5 mph - N/A   Overcast